Location: Stockholm
(59.3330°N, 18.0500°E)
Time: 09:21:59
(UTC+01:00)

FENGYUN 1C DEB - Pass Details

Date: 12 December 2023
Orbit: 850 x 2580 km, 98.6° (Epoch: 26 November)

Event Time Altitude Azimuth Distance (km) Brightness Sun altitude
Exits shadow 18:36:27 - 33° (NNE) 4,507 ? -26.7°
Reaches altitude 10° 18:36:45 10° 32° (NNE) 4,445 ? -26.7°
Maximum altitude 18:45:54 30° 339° (NNW) 3,559 ? -27.9°
Drops below altitude 10° 18:56:35 10° 288° (WNW) 5,242 ? -29.2°
Sets 19:00:59 0° 279° (W) 6,300 ? -29.8°
